Date String (YYYY-MM-DD hh:mm:ss) UTC,Instrument flags,Ambient pressure (hPa),Sample flow (lpm),Bypass flow (lpm),Sample temperature (°C),Ambient temperature (°C),ASC tube jacket temperature (°C),LED temperature (°C),Box temperature (°C),Sample RH (%),Span deviation,Mass concentration (μg/m³),Mass concentration (μg/m³),Mass concentration (μg/m³)
DateTimeUTC,F1_M11,P_M11,Q1_M11,Q2_M11,T1_M11,T2_M11,T3_M11,T4_M11,T5_M11,U1_M11,ZSPAN_M11,X0_M11,X2_M11,X1_M11
2022-04-24 18:00:00,,0827.2,4.98,0.00,24.2,23.5,00.0,32.9,26.1,11.6,0000.0,0005.50,0001.61,0001.12
2022-04-24 18:01:00,,0827.1,5.00,0.00,24.2,23.5,00.0,32.9,26.1,11.6,0000.0,0006.12,0001.54,0001.09
2022-04-24 18:02:00,,0827.2,5.00,0.00,24.2,23.5,00.0,33.0,26.1,11.7,0000.0,0005.80,0001.47,0001.07
2022-04-24 18:03:00,,0827.2,5.00,0.00,24.2,23.6,00.0,33.0,26.1,11.5,0000.0,0005.12,0001.47,0001.06
2022-04-24 18:04:00,,0827.2,5.00,0.00,24.2,23.6,00.0,33.0,26.1,11.6,0000.0,0004.36,0001.43,0001.04
2022-04-24 18:05:00,,0827.1,5.00,0.00,24.2,23.6,00.0,33.0,26.1,11.6,0000.0,0004.12,0001.43,0001.03
2022-04-24 18:06:00,,0827.1,5.00,0.00,24.3,23.6,00.0,33.0,26.2,11.5,0000.0,0003.91,0001.40,0001.01
2022-04-24 18:07:00,,0827.2,5.01,0.00,24.3,23.6,00.0,33.0,26.2,11.6,0000.0,0003.89,0001.41,0001.00
2022-04-24 18:08:00,,0827.2,5.00,0.00,24.3,23.6,00.0,33.1,26.2,11.5,0000.0,0004.04,0001.46,0001.00
2022-04-24 18:09:00,,0827.2,5.00,0.00,24.3,23.6,00.0,33.1,26.2,11.6,0000.0,0004.04,0001.46,0000.99
2022-04-24 18:10:00,,0827.1,5.00,0.00,24.3,23.7,00.0,33.1,26.2,11.6,0000.0,0003.99,0001.46,0000.98
2022-04-24 18:11:00,,0827.1,5.00,0.00,24.3,23.7,00.0,33.1,26.2,11.6,0000.0,0004.22,0001.48,0000.98
2022-04-24 18:12:00,,0827.1,4.99,0.00,24.4,23.7,00.0,33.1,26.2,11.5,0000.0,0003.00,0001.51,0000.98
2022-04-24 18:13:00,,0827.1,5.01,0.00,24.4,23.7,00.0,33.1,26.3,11.5,0000.0,0002.97,0001.49,0000.98
2022-04-24 18:14:00,,0827.1,5.00,0.00,24.4,23.8,00.0,33.2,26.3,11.5,0000.0,0002.81,0001.45,0000.98
2022-04-24 18:15:00,,0827.1,5.00,0.00,24.4,23.8,00.0,33.2,26.3,11.4,0000.0,0002.70,0001.40,0000.97
2022-04-24 18:16:00,,0827.1,4.99,0.00,24.4,23.8,00.0,33.2,26.4,11.5,0000.0,0002.74,0001.38,0000.96
2022-04-24 18:17:00,,0827.1,5.00,0.00,24.5,23.8,00.0,33.2,26.4,11.5,0000.0,0002.75,0001.37,0000.97
2022-04-24 18:18:00,,0827.2,5.00,0.00,24.5,23.9,00.0,33.2,26.4,11.4,0000.0,0002.70,0001.35,0000.97
2022-04-24 18:19:00,,0827.2,5.01,0.00,24.5,23.9,00.0,33.3,26.3,11.5,0000.0,0002.63,0001.32,0000.97
2022-04-24 18:20:00,,0827.2,5.00,0.00,24.5,23.9,00.0,33.3,26.4,11.4,0000.0,0002.65,0001.32,0000.97
2022-04-24 18:21:00,,0827.2,4.99,0.00,24.6,23.9,00.0,33.3,26.4,11.3,0000.0,0002.52,0001.28,0000.96
2022-04-24 18:22:00,,0827.2,5.00,0.00,24.6,23.9,00.0,33.3,26.5,11.4,0000.0,0002.13,0001.27,0000.97
2022-04-24 18:23:00,,0827.2,5.00,0.00,24.6,23.9,00.0,33.3,26.5,11.3,0000.0,0001.87,0001.22,0000.97
2022-04-24 18:24:00,,0827.2,5.00,0.00,24.6,23.9,00.0,33.3,26.5,11.3,0000.0,0001.81,0001.20,0000.96
2022-04-24 18:25:00,,0827.1,5.00,0.00,24.6,23.9,00.0,33.4,26.5,11.3,0000.0,0001.81,0001.19,0000.95
2022-04-24 18:26:00,,0827.5,5.01,0.00,24.6,23.9,00.0,33.4,26.5,11.3,0000.0,0001.85,0001.20,0000.94
2022-04-24 18:27:00,,0827.7,5.01,0.00,24.6,24.0,00.0,33.4,26.5,11.2,0000.0,0001.71,0001.18,0000.94
2022-04-24 18:28:00,,0827.7,5.00,0.00,24.6,24.0,00.0,33.4,26.5,11.2,0000.0,0001.69,0001.19,0000.92
2022-04-24 18:29:00,,0827.2,5.00,0.00,24.7,24.0,00.0,33.4,26.6,11.2,0000.0,0001.86,0001.20,0000.91
2022-04-24 18:30:00,,0827.5,4.99,0.00,24.7,24.0,00.0,33.4,26.6,11.1,0000.0,0001.82,0001.16,0000.90
2022-04-24 18:31:00,,0827.7,4.99,0.00,24.7,24.0,00.0,33.5,26.6,11.4,0000.0,0001.87,0001.12,0000.88
2022-04-24 18:32:00,,0827.6,5.01,0.00,24.7,24.0,00.0,33.5,26.6,11.8,0000.0,0001.92,0001.12,0000.87
2022-04-24 18:33:00,,0827.2,5.01,0.00,24.7,24.0,00.0,33.5,26.6,12.0,0000.0,0002.93,0001.09,0000.85
2022-04-24 18:34:00,,0827.2,5.00,0.00,24.7,24.0,00.0,33.5,26.6,11.8,0000.0,0003.22,0001.12,0000.87
2022-04-24 18:35:00,,0827.2,4.99,0.00,24.7,24.0,00.0,33.5,26.6,11.9,0000.0,0003.54,0001.18,0000.87
2022-04-24 18:36:00,,0827.5,4.99,0.00,24.8,24.1,00.0,33.5,26.6,11.9,0000.0,0003.59,0001.20,0000.87
2022-04-24 18:37:00,,0827.2,5.00,0.00,24.8,24.1,00.0,33.6,26.6,12.1,0000.0,0003.61,0001.21,0000.88
2022-04-24 18:38:00,,0827.3,5.00,0.00,24.8,24.1,00.0,33.6,26.6,12.0,0000.0,0003.69,0001.24,0000.88
2022-04-24 18:39:00,,0827.3,5.00,0.00,24.8,24.1,00.0,33.6,26.7,12.6,0000.0,0003.80,0001.26,0000.90
2022-04-24 18:40:00,,0827.3,5.00,0.00,24.8,24.1,00.0,33.6,26.7,13.0,0000.0,0003.71,0001.28,0000.95
2022-04-24 18:41:00,,0827.3,5.00,0.00,24.8,24.1,00.0,33.6,26.7,13.0,0000.0,0003.76,0001.33,0000.99
2022-04-24 18:42:00,,0827.3,5.00,0.00,24.8,24.1,00.0,33.6,26.7,13.0,0000.0,0003.74,0001.40,0001.04
2022-04-24 18:43:00,,0827.2,4.99,0.00,24.9,24.1,00.0,33.6,26.7,12.8,0000.0,0003.92,0001.46,0001.07
2022-04-24 18:44:00,,0827.2,5.01,0.00,24.9,24.1,00.0,33.7,26.7,12.3,0000.0,0003.48,0001.54,0001.12
2022-04-24 18:45:00,,0827.3,5.01,0.00,24.9,24.1,00.0,33.7,26.7,12.1,0000.0,0002.94,0001.59,0001.14
2022-04-24 18:46:00,,0827.2,4.99,0.00,24.9,24.1,00.0,33.7,26.7,12.2,0000.0,0002.71,0001.58,0001.16
2022-04-24 18:47:00,,0827.5,4.99,0.00,24.9,24.1,00.0,33.7,26.7,12.1,0000.0,0002.72,0001.60,0001.18
2022-04-24 18:48:00,,0827.3,5.00,0.00,24.9,24.1,00.0,33.7,26.7,12.1,0000.0,0002.75,0001.62,0001.21
2022-04-24 18:49:00,,0827.3,5.02,0.00,24.9,24.1,00.0,33.7,26.8,12.2,0000.0,0002.71,0001.63,0001.24
2022-04-24 18:50:00,,0827.4,5.00,0.00,24.9,24.1,00.0,33.7,26.8,12.2,0000.0,0002.81,0001.62,0001.26
2022-04-24 18:51:00,,0827.4,5.00,0.00,24.9,24.1,00.0,33.7,26.7,12.3,0000.0,0002.96,0001.62,0001.24
2022-04-24 18:52:00,,0827.4,4.99,0.00,24.9,24.1,00.0,33.7,26.7,12.3,0000.0,0004.26,0001.60,0001.22
2022-04-24 18:53:00,,0827.4,4.99,0.00,24.9,24.1,00.0,33.7,26.7,12.2,0000.0,0004.70,0001.58,0001.22
2022-04-24 18:54:00,,0827.4,5.01,0.00,24.9,24.1,00.0,33.8,26.7,12.3,0000.0,0004.62,0001.54,0001.20
2022-04-24 18:55:00,,0827.4,5.00,0.00,24.9,24.2,00.0,33.8,26.7,12.4,0000.0,0004.55,0001.47,0001.17
2022-04-24 18:56:00,,0827.4,4.99,0.00,24.9,24.2,00.0,33.8,26.8,12.4,0000.0,0004.86,0001.42,0001.15
2022-04-24 18:57:00,,0827.4,5.00,0.00,24.9,24.2,00.0,33.8,26.8,12.4,0000.0,0005.61,0001.40,0001.14
2022-04-24 18:58:00,,0827.4,5.00,0.00,24.9,24.1,00.0,33.8,26.8,12.5,0000.0,0005.61,0001.41,0001.13
2022-04-24 18:59:00,,0827.4,5.01,0.00,24.9,24.1,00.0,33.8,26.7,12.3,0000.0,0005.58,0001.40,0001.12
